Starlink 6315

operational
NORAD ID: 57236 Int'l Des: 2023-094 Owner: SPXS Country: US Constellation: starlink
LEOCIRCULAR

About Starlink 6315

Description loading...

Live Position

Loading 3D Globe...

Upcoming Passes

Altitude History

Altitude vs Time

uPlot chart will show altitude changes over time

Two-Line Element Set

1 57236U 23094U 25353.65059105 .00000649 00000-0 63150-4 0 9998
2 57236 43.0037 92.7837 0001335 270.6794 89.3895 15.02533826135225
Epoch: Dec 19, 2025 • Age: 10 hours

Current Status

Altitude 560.3 km
Velocity 7.59 km/s
Sub-Earth Point 29.27°N, 118.14°E
Launch Date Jul 7, 2023
Age 2.4 years
Type internet

Technical Details

Classification Payload
Mass 305.00 kg
Dry Mass 290.00 kg
Total Mass 305.00 kg
Length 0.20 m
Diameter 2.80 m
Span 9.00 m
Shape Box + pan
Manufacturer SPXS
Bus Type Starlink
Phase Status In Orbit
Owner/State SPXS/US

Large Constellations

Loading constellations...